Location: Hradec Kralove
(50.2170°N, 15.8330°E)
Time: 07:03:43
(UTC+02:00)

TIGRISAT - Pass Details

Date: 12 August 2024
Orbit: 591 x 667 km, 97.7° (Epoch: 19 September)

Event Time Altitude Azimuth Distance (km) Brightness Sun altitude
Rises 04:12:16 0° 155° (SSE) 2,918 ? -12.7°
Reaches altitude 10° 04:14:29 10° 152° (SSE) 2,002 ? -12.4°
Maximum altitude 04:18:47 61° 72° (ENE) 708 ? -11.9°
Drops below altitude 10° 04:23:00 10° 353° (N) 1,973 ? -11.4°
Sets 04:25:11 0° 350° (N) 2,871 ? -11.2°
